STARLINK-35244, 65829

Orbit data source: Space-Track

STARLINK-35244, 65829 is a payload satellite owned by SpaceX/Seattle (US) in LEO that was launched on Mon, 29 Sep 2025 UTC via an FALCON 9 launch vehicle from the Air Force Western Test Range (AFWTR). Payload-class satellites include a variety of spacecraft equipped with specific instruments for various scientific and technological missions. These include communications satellites like Starlink; space stations such as the ISS; scientific satellites like the Hubble; Earth observation satellites from companies like Planet Labs, Umbra, and HawkEye 360; GPS; miniature CubeSats for education and research; and military/defense satellites.

Loading next visibility...
Identifier
65829, 2025-221G
Orbit
LEO
Country
Flag of USUS
Related business
Manufacturer
SpaceX/Seattle
Mission
Operational Commercial Communications
Bus & Motor
STARLINK V2MO, Unknown motor
Mass
575 kg wet, ~530 kg dry
Launch date (UTC)
2025-09-29 (1 month ago)
Launch vehicle
FALCON 9
Launch site
Air Force Western Test Range (AFWTR)
Object type
Payload
Rocket body
Debris
Shape & HBR
Box + 2 Pan, 17.7 m
Radar Cross Section
36.964 m²

Expand to show TLE details & history
Last TLE update: 2 days ago

TLE from 2 days ago
0 STARLINK-35244
1 65829U 25221G   25312.23690529  .00034097  00000-0  11596-2 0  9998
2 65829  53.1612 294.9900 0001508 101.4331 258.6839 15.30156809  7411
Epoch: 2025-11-08T05:41Z
TLE epoch observation values (Epoch: 2025-11-08T05:41:08.617Z)
Latitude
-0.00001°
Longitude
162.03468°
Altitude
476.447 km
Speed
7.629 km/s
True Right ascension
19h 39m 57s
True Declination
0° 00' 00"
Sunlit
Object was in daylight at epoch
Visualization orbit readout
Latitude
Unknown
Longitude
Unknown
Altitude
Unknown
Speed
Unknown
Apparent Right ascension
Unknown
Apparent Declination
Unknown
Sunlit
N/A
Visualization observer readout
Local Sidereal Time
03:33:55
Azimuth
Unknown
Elevation
Unknown
Doppler factor
Unknown
Orbital elements
Apogee altitude
476.634 km
Perigee altitude
474.567 km
Semi-major axis
6,853.737 km
Eccentricity
0.00015
Inclination
53.1612°
RAAN
294.99°
Arg. of periapsis
101.4331°
True anomaly
258.66696°
Mean anomaly
258.6839°
Eccentric anomaly
258.67543°
Mean motion
3.82518 °/min
Orbital period
94.11 mins
BSTAR
0.0011596
Loading maneuver chart data...
Computing Atmospheric mass density...
Loading historical data...
Loading historical data...
Loading historical data...
Loading historical data...
Loading historical data...
Loading historical data...
Loading historical data...

Documentation

Showing up to 5 results
|